GFSGL_500_rhum_003.txt.gz
RH
30 34 42 50 42 41 48 42 22 9 9 14 23 22 18 19 17 18 22 28 41 74 78 67 58 57 58 61 78 87 82 90 85 88 100 96 100 100 100 100 97 53 70
40 44 46 43 41 39 24 8 8 13 23 38 24 19 21 24 24 26 31 68 78 61 40 26 22 21 21 22 23 18 26 48 62 62 86 100 100 100 100 100 100 100 87
42 38 38 39 35 20 10 10 10 16 47 84 44 28 26 25 31 54 82 67 41 28 23 22 21 18 18 19 20 21 21 22 26 43 62 90 99 100 100 100 99 100 100
41 40 38 35 18 11 11 11 21 97 97 48 71 28 37 53 89 70 48 35 32 30 25 21 26 36 38 34 28 21 18 21 22 21 31 58 92 100 100 98 77 98 100
46 41 34 19 12 11 11 19 100 78 53 100 89 50 82 77 56 42 40 38 35 25 28 46 68 76 70 60 42 32 27 19 17 19 19 22 49 96 100 100 83 79 92
42 29 13 11 10 10 14 92 100 100 86 100 72 86 70 52 48 46 43 36 26 39 67 78 87 92 89 83 71 56 48 29 22 16 18 16 16 67 99 100 99 100 94
33 13 12 10 8 12 17 47 100 97 98 98 74 71 54 52 50 46 36 31 66 82 82 81 90 100 100 94 85 79 62 57 28 14 16 16 14 41 85 98 94 89 79
17 13 9 7 10 14 18 66 99 100 100 69 74 59 56 55 49 40 36 79 94 100 99 89 96 100 100 100 100 98 83 62 39 15 12 14 14 23 67 88 97 92 90
14 10 8 13 14 15 23 79 98 98 71 70 66 62 59 59 56 32 86 94 98 96 92 92 96 89 77 90 92 91 78 74 31 13 12 14 14 20 51 70 68 61 60
10 8 13 16 18 20 37 47 71 86 69 69 66 62 64 57 41 56 84 94 92 100 100 100 100 100 74 31 73 85 76 48 26 13 12 13 14 18 42 45 35 26 22
8 15 18 21 26 39 44 65 85 74 55 68 67 70 57 49 33 62 76 85 92 100 100 100 100 100 100 96 26 21 24 24 17 12 12 12 13 14 18 18 14 14 26
15 19 23 26 49 65 83 90 88 53 54 61 71 68 55 54 34 62 77 92 95 100 100 100 100 100 100 100 95 24 25 18 11 10 11 11 12 13 13 18 38 43 49
20 21 26 35 62 68 72 82 90 59 45 58 75 61 55 52 33 60 83 91 99 100 100 100 100 100 100 100 96 36 10 11 12 13 13 15 25 39 45 46 40 29 21
22 24 29 53 67 72 71 85 90 75 54 61 77 60 52 40 33 52 93 96 100 100 100 100 100 100 100 100 100 100 72 55 62 67 65 61 55 40 24 17 16 13 10
22 27 34 66 74 64 68 91 91 81 61 74 75 60 48 38 35 36 76 93 99 100 100 100 100 100 100 98 88 93 91 84 78 63 45 33 30 28 25 23 21 19 18
20 34 40 76 80 68 74 88 89 81 63 86 73 59 47 42 35 31 79 81 89 100 100 100 100 100 100 100 69 65 62 59 52 44 42 39 37 32 24 19 17 17 16
28 42 42 61 79 66 64 83 97 76 81 93 72 58 47 43 34 33 55 82 90 93 99 100 100 100 100 100 100 52 53 55 49 46 44 37 31 25 19 14 11 11 13
37 55 50 49 68 70 69 85 92 90 92 83 68 57 47 46 37 32 30 72 82 97 98 100 99 99 100 100 100 100 76 62 61 53 35 29 33 33 26 20 15 12 12
42 56 50 58 75 76 77 89 88 88 87 76 63 56 48 45 42 34 32 36 86 91 100 99 100 99 94 95 98 96 96 100 99 92 86 63 46 42 39 34 28 23 21
44 47 70 81 78 75 76 84 86 89 87 81 69 57 47 40 46 41 34 34 37 82 90 99 99 100 100 98 97 98 100 99 100 100 100 100 92 71 61 60 44 35 31
42 64 73 73 73 73 77 84 86 90 90 80 72 57 45 41 43 51 42 36 37 38 70 89 94 100 100 100 100 100 100 100 100 100 100 100 100 90 90 87 79 59 45
43 49 66 74 74 78 80 82 88 92 86 78 67 52 42 39 42 56 56 45 40 37 37 50 90 92 98 100 100 100 100 100 100 100 100 100 100 100 100 98 93 90 83
51 51 69 81 81 74 72 80 94 92 84 74 62 48 40 38 43 59 67 57 50 45 40 37 38 72 99 97 100 100 100 100 100 100 100 100 100 100 100 100 100 100 100
59 68 88 91 84 81 82 84 90 89 83 74 61 48 40 38 44 59 70 69 60 48 44 42 41 41 51 96 100 100 100 100 100 100 100 100 100 100 100 100 100 100 100
90 95 93 90 83 78 82 84 90 92 87 82 67 51 41 38 46 60 66 65 56 48 45 44 45 48 50 50 96 100 100 100 100 100 100 100 100 100 100 100 100 100 100
92 93 91 88 88 82 85 88 91 98 98 93 75 58 45 41 45 60 63 61 56 50 48 48 49 54 59 58 59 96 100 100 100 100 100 100 100 100 100 100 100 100 100

GFSGL_500_rhum_006.txt.gz
RH
50 44 39 46 53 50 47 45 32 18 12 12 10 37 58 97 98 100 79 26 32 43 63 85 84 69 59 46 36 31 32 33 44 64 70 99 100 100 100 98 99 93 50
40 44 49 52 53 52 48 33 19 13 9 15 80 85 100 100 85 68 54 92 96 76 54 47 39 34 32 29 27 24 22 21 22 24 35 56 95 100 100 100 87 93 100
52 50 51 52 54 50 36 20 13 9 8 57 78 82 100 100 92 85 67 72 54 45 42 41 38 34 29 24 24 22 21 19 18 20 21 24 39 76 100 100 95 76 100
50 54 55 56 52 36 19 14 9 8 12 17 75 100 100 96 79 61 68 54 48 49 46 38 27 30 39 46 48 51 54 52 39 26 19 20 21 25 60 100 99 86 84
49 53 55 53 40 23 16 10 9 13 15 25 100 100 100 70 64 67 58 54 51 45 29 48 54 52 58 65 64 68 79 69 56 50 34 21 20 21 22 52 100 98 83
53 60 54 41 26 18 10 8 13 15 18 99 100 96 67 72 65 62 58 48 42 33 59 48 60 64 70 85 90 93 95 98 93 70 48 36 21 19 20 21 61 100 99
62 54 38 24 18 11 10 14 18 19 28 83 86 89 77 67 62 59 48 41 32 61 61 72 76 96 100 86 93 85 100 100 91 89 64 51 27 19 18 19 24 76 94
55 39 26 18 12 10 15 19 23 23 31 58 80 69 70 64 61 50 46 34 53 72 86 93 92 100 100 100 96 47 92 100 99 81 68 49 28 19 17 18 19 57 86
45 34 19 12 10 16 19 26 42 53 77 85 66 65 68 67 63 56 47 32 71 92 99 98 98 100 100 100 100 40 68 96 95 73 76 50 25 13 16 17 17 63 79
36 22 13 11 15 19 23 43 66 84 81 74 63 54 68 73 60 51 34 34 77 86 97 100 100 100 100 100 100 79 36 93 86 64 56 32 14 12 15 15 21 67 79
19 14 10 13 18 20 25 59 71 73 80 80 64 51 66 71 58 46 31 35 70 84 96 100 100 100 100 100 100 93 30 24 40 40 26 14 12 14 15 14 27 56 62
14 11 12 17 18 21 37 66 69 72 80 84 76 65 76 72 54 46 33 36 72 82 97 95 100 100 100 100 100 96 29 27 23 19 15 13 13 14 14 16 29 38 28
12 12 14 17 18 23 51 67 62 68 87 85 82 69 78 68 52 46 32 34 71 87 99 96 100 100 100 100 100 100 65 13 12 11 11 11 12 13 13 14 15 15 18
12 14 15 15 21 30 62 79 70 74 86 87 82 71 79 61 48 45 35 31 74 89 100 93 100 100 100 100 100 100 100 70 39 25 17 15 15 16 21 27 38 42 41
14 16 14 16 27 38 64 81 72 66 86 90 80 83 73 57 48 42 37 26 62 95 100 93 98 100 100 95 93 97 99 99 95 88 80 72 67 58 45 29 18 14 14
15 17 14 22 38 47 51 67 69 70 85 89 87 77 68 57 50 42 43 30 38 79 91 92 87 100 100 100 89 76 77 67 57 48 44 39 35 32 27 23 22 20 18
17 16 18 30 47 53 55 77 85 79 89 92 84 78 70 59 52 41 42 38 28 69 81 90 86 90 100 100 100 100 66 68 60 53 48 45 38 32 31 26 20 16 15
19 18 29 41 47 61 82 83 84 92 97 93 87 81 71 60 50 40 40 43 29 29 77 86 90 87 91 99 100 100 100 84 70 58 44 36 32 26 19 16 14 12 12
24 31 38 52 71 77 78 80 81 87 86 85 84 79 68 54 43 37 38 46 37 30 35 83 92 93 90 89 94 100 100 100 100 94 73 46 36 37 34 26 23 19 19
33 41 43 47 56 74 79 81 85 85 82 82 81 75 60 49 40 34 35 44 48 37 32 34 80 96 96 91 90 90 99 100 100 100 100 100 99 90 72 63 64 48 33
41 52 57 53 53 76 84 89 80 74 80 87 83 70 58 48 38 33 35 42 55 52 45 36 31 59 94 97 96 96 97 100 100 100 100 100 100 100 98 88 87 86 74
51 56 62 58 67 89 90 79 78 75 80 84 82 72 63 50 39 34 37 47 65 64 57 49 40 32 32 75 99 100 100 100 100 100 100 100 100 100 100 100 100 100 96
65 71 81 80 93 98 96 83 81 80 80 86 86 79 68 51 40 36 39 54 64 67 65 54 41 38 36 33 39 85 100 100 100 100 100 100 100 100 100 100 100 100 100
75 85 95 96 92 92 92 94 89 86 87 93 91 87 74 56 43 37 38 51 58 59 57 53 47 40 37 37 37 39 58 100 100 100 100 100 100 100 100 100 100 100 100
72 85 90 91 91 94 100 100 100 98 92 97 95 94 84 64 53 44 40 41 47 47 45 45 46 43 42 43 43 45 48 58 98 100 100 100 100 100 100 100 100 100 100
75 80 89 94 98 100 100 100 100 100 100 100 97 99 94 79 66 53 46 41 42 42 44 46 46 45 46 47 51 54 58 58 74 100 100 100 100 100 100 100 100 100 100

GFSGL_500_rhum_009.txt.gz
RH
51 53 48 38 38 38 36 37 42 45 46 33 23 14 10 10 16 86 100 97 100 91 77 58 54 57 49 45 44 43 39 36 33 32 31 28 34 48 88 100 99 98 78
59 51 44 38 36 37 45 49 50 48 37 23 16 10 13 17 22 30 90 100 100 78 59 55 49 46 46 42 35 30 29 29 29 27 28 28 25 24 36 94 100 94 89
58 45 39 39 39 36 45 48 51 38 25 18 10 12 17 21 32 100 100 98 56 61 51 48 46 38 28 34 44 44 48 55 54 32 25 23 22 26 26 25 81 100 90
46 42 39 31 28 33 47 53 42 31 22 10 12 16 21 26 99 85 72 64 62 54 51 41 28 32 46 48 56 54 54 49 53 78 78 52 38 26 23 22 25 62 100
50 41 32 31 37 48 55 44 29 19 11 11 14 21 23 59 73 70 67 63 58 50 39 25 37 52 66 73 76 86 94 94 71 73 73 91 73 62 41 20 20 24 56
42 37 36 42 50 58 48 32 21 11 11 15 24 22 28 57 66 67 67 64 52 45 28 29 56 68 88 95 100 100 100 99 95 92 92 97 93 74 65 41 20 20 23
43 42 46 51 57 48 35 19 11 13 16 29 39 48 58 64 65 57 69 65 52 43 28 50 62 88 98 98 100 100 100 100 90 43 97 100 100 94 65 55 32 20 20
47 48 56 53 46 36 21 12 13 15 19 43 61 59 63 67 57 50 71 64 50 35 33 60 79 96 99 96 96 100 100 100 70 37 95 100 95 88 83 55 37 19 19
52 60 54 47 39 23 14 13 14 17 22 51 55 55 67 76 63 64 72 58 48 31 47 70 89 100 100 100 100 100 100 100 54 71 75 95 100 90 75 54 32 18 18
63 56 50 40 25 17 12 15 15 19 35 55 60 66 77 80 76 74 64 50 42 28 61 87 99 100 100 100 100 100 100 82 34 74 83 76 68 79 62 35 19 17 18
61 51 39 27 18 13 15 14 16 24 49 56 51 72 77 80 78 75 58 47 39 29 61 87 100 100 100 100 100 100 100 44 29 29 64 68 62 51 30 16 15 17 18
52 38 28 20 14 14 15 14 24 33 58 64 64 77 84 82 76 72 56 45 39 28 60 85 100 100 100 100 100 100 100 38 24 24 26 27 23 16 13 14 16 16 16
37 28 21 16 14 16 14 18 30 34 61 67 63 69 83 85 77 70 54 46 39 29 54 83 100 100 100 100 100 100 100 63 17 14 16 15 14 13 14 14 14 14 23
29 22 17 15 17 17 15 31 41 41 53 64 70 81 88 84 76 68 55 48 40 35 38 78 98 100 100 100 98 100 100 100 75 26 12 11 12 12 13 14 16 22 29
22 17 16 16 19 18 28 46 51 47 57 73 83 92 88 77 73 66 53 46 38 40 28 70 96 98 97 100 96 86 82 82 98 99 89 64 39 27 22 16 17 18 22
16 16 17 20 21 26 41 46 51 75 82 83 90 93 82 76 70 60 50 42 36 40 28 48 86 97 100 100 100 88 88 76 62 55 52 51 52 52 52 48 40 32 24
15 17 21 27 29 35 46 71 83 80 72 77 88 86 79 78 69 55 45 37 34 40 37 28 68 91 97 100 100 100 99 85 69 62 59 57 51 39 30 25 24 24 22
18 22 29 35 38 42 46 56 74 80 79 85 87 80 81 76 64 51 42 34 33 38 44 30 31 78 93 98 100 100 100 100 92 76 53 47 45 36 31 28 22 20 19
22 32 38 43 49 54 53 52 74 83 90 90 75 80 83 72 60 50 41 33 34 39 51 42 31 30 73 94 100 100 100 100 100 100 96 68 38 32 30 21 21 18 15
31 41 46 51 59 66 64 66 89 92 80 75 72 83 78 69 60 50 41 34 35 44 59 59 51 42 29 52 95 100 100 100 100 100 100 100 100 98 78 55 50 45 32
43 53 56 63 71 75 79 100 100 94 83 78 80 84 80 72 64 52 41 34 34 45 57 68 67 62 42 34 32 80 98 100 100 100 100 100 100 100 100 100 90 82 84
55 60 67 82 93 98 100 100 100 97 91 89 86 89 88 78 71 58 44 36 34 40 51 57 60 58 52 42 35 32 39 92 100 100 100 100 100 100 100 100 100 99 99
65 70 75 86 97 100 100 100 100 100 100 100 99 96 96 89 81 66 52 41 37 35 36 38 38 38 39 43 43 37 32 31 54 96 100 100 100 100 100 100 100 100 100
73 90 86 84 95 98 97 97 97 100 100 100 100 100 100 98 93 79 64 51 44 38 36 35 35 36 37 38 38 37 36 35 34 36 78 100 100 100 100 100 100 100 100
88 98 100 95 94 97 99 100 100 100 100 100 100 100 100 100 98 94 81 69 53 48 42 38 37 39 41 41 40 40 40 40 40 44 44 62 99 100 100 100 100 100 100
99 100 100 100 100 100 100 100 100 100 100 100 100 100 100 100 100 100 100 90 75 56 58 56 45 41 42 43 43 43 48 51 54 56 59 57 75 100 100 100 100 100 100

GFSGL_500_rhum_012.txt.gz
RH
62 65 61 57 52 48 43 38 36 37 34 35 39 46 38 25 14 9 11 17 24 31 64 77 72 63 50 46 44 39 29 26 21 18 22 26 32 34 35 35 36 44 59
73 76 66 57 53 47 40 42 41 36 39 46 45 34 22 13 9 12 18 21 52 61 70 64 55 51 45 36 23 25 40 41 37 34 34 36 32 28 30 33 31 28 35
84 71 64 58 51 48 48 43 40 42 47 45 32 21 13 10 13 20 19 42 62 67 63 58 52 43 32 22 37 41 52 64 68 65 59 64 54 41 40 27 30 28 30
79 71 61 57 56 53 48 39 42 46 44 31 21 13 11 12 24 34 46 60 65 63 67 58 45 38 22 39 48 68 79 87 94 96 97 94 87 74 50 64 32 26 33
75 65 62 61 54 46 39 45 50 46 32 22 14 12 12 22 37 45 55 64 61 55 69 52 40 29 34 53 70 80 84 87 93 91 100 100 100 100 71 63 76 40 37
72 70 67 46 42 44 46 54 47 33 22 14 12 12 16 32 43 52 67 69 61 68 64 47 39 28 52 74 90 95 98 94 97 98 100 100 100 100 89 80 85 75 47
80 63 45 45 48 48 53 51 36 23 15 13 12 14 23 44 60 62 68 80 75 76 57 41 30 40 62 85 90 99 100 100 98 98 100 100 95 57 65 90 100 94 72
64 52 53 50 54 60 52 36 24 16 14 14 13 20 43 59 58 68 79 84 80 71 54 40 27 50 77 88 99 100 100 100 100 100 100 85 62 90 100 100 100 93 68
64 59 56 58 63 53 37 23 15 14 15 12 18 33 55 53 62 76 82 86 79 58 48 39 29 61 90 91 100 100 100 100 90 62 55 65 96 100 100 100 100 89 63
72 71 70 67 55 37 22 14 13 15 15 15 25 45 57 59 64 79 83 80 66 54 46 37 33 66 88 94 100 100 100 100 56 31 28 80 89 92 99 84 82 78 67
81 79 73 58 37 21 13 13 15 17 14 23 29 40 58 59 59 72 80 68 63 54 42 36 36 71 86 99 100 100 100 100 53 26 28 62 77 68 67 74 72 64 50
82 75 56 35 20 13 13 15 18 17 20 34 37 37 42 56 70 79 73 66 62 47 39 35 33 68 87 99 100 100 100 100 90 19 23 26 32 40 46 47 37 26 20
76 53 30 19 12 13 15 17 21 21 34 43 40 41 56 66 75 78 73 68 56 45 36 34 30 62 85 99 100 100 100 100 100 58 14 16 17 16 16 16 16 17 18
49 26 17 12 13 15 17 24 26 32 36 41 58 67 67 70 77 77 69 62 49 41 33 34 30 51 86 100 97 100 97 86 95 100 64 17 12 13 14 14 15 15 15
23 17 12 14 18 18 24 32 34 38 57 70 69 67 68 75 80 72 66 53 44 37 32 34 34 31 74 90 92 100 100 91 72 65 96 99 58 23 14 14 15 15 20
17 12 16 21 20 22 32 40 42 43 45 62 72 70 74 76 72 71 62 51 43 36 31 35 39 30 60 94 96 97 100 96 82 71 64 51 57 87 84 60 43 32 21
12 15 24 24 23 30 39 48 53 53 47 60 72 73 71 71 73 69 60 50 42 36 32 37 45 34 31 78 98 100 100 100 96 87 74 69 64 42 31 26 27 30 26
15 18 27 26 33 42 47 54 62 59 57 80 80 73 73 73 74 71 60 50 40 35 34 42 52 48 38 33 78 96 100 100 100 100 91 70 60 59 54 39 32 27 23
18 23 29 30 48 52 56 62 74 73 92 96 89 80 79 78 79 77 65 52 40 33 34 46 56 61 57 52 34 63 96 99 100 100 100 97 62 47 40 39 39 34 29
20 31 29 40 55 60 66 77 94 98 98 98 98 94 89 85 86 83 72 60 43 35 32 34 43 52 57 62 50 35 43 95 100 100 100 100 100 99 74 44 34 29 28
25 34 32 52 62 65 68 78 97 100 100 100 100 99 95 96 97 93 82 69 51 38 34 32 32 32 33 37 44 49 41 33 70 100 100 100 100 100 100 100 92 83 80
36 37 44 59 66 72 72 85 98 100 100 99 98 96 99 99 100 100 93 84 65 50 40 34 31 31 29 28 27 28 31 41 37 38 92 100 100 100 100 100 100 100 94
44 47 56 68 76 83 77 81 96 100 100 100 97 96 100 100 100 100 100 99 84 69 52 40 33 32 32 31 32 32 32 31 32 34 32 61 100 100 100 100 100 100 100
50 59 64 80 86 91 95 100 100 100 100 100 100 100 100 100 100 100 100 100 100 90 77 54 44 46 43 34 34 35 35 34 34 34 33 33 37 87 100 100 100 100 100
52 63 81 84 98 99 96 98 98 98 99 100 100 100 100 100 100 100 100 100 100 100 100 84 62 52 60 49 36 36 38 38 37 37 37 38 37 38 51 99 100 100 100
53 66 94 99 95 98 100 99 98 100 100 100 100 100 100 100 100 100 100 100 100 100 100 100 88 68 76 76 49 40 43 47 56 58 58 56 54 53 53 53 86 100 100

GFSGL_500_rhum_015.txt.gz
RH
40 37 51 80 76 75 63 54 52 47 39 38 37 38 39 48 40 18 10 10 10 18 32 38 51 56 60 55 49 41 38 24 22 30 31 32 32 28 26 24 27 35 47
38 93 76 70 71 62 57 57 50 43 43 42 41 42 49 36 14 10 11 13 26 37 48 58 61 60 67 50 40 36 24 34 40 45 53 56 59 54 45 39 30 32 36
65 55 66 68 63 60 62 58 50 49 46 46 48 49 30 12 10 11 12 27 45 49 57 63 63 70 67 44 37 26 35 50 62 66 67 72 73 76 72 64 54 39 37
52 67 66 65 66 69 63 58 56 50 50 50 48 25 11 10 12 12 19 45 49 52 61 68 72 75 49 38 30 34 55 69 75 85 86 85 87 88 80 92 89 76 48
67 71 74 75 77 71 67 59 51 49 50 42 22 10 10 12 12 16 38 56 58 58 64 75 78 60 44 38 29 51 70 75 89 94 96 95 97 94 94 99 100 100 81
78 81 82 83 82 75 57 53 52 52 34 20 9 10 12 13 15 28 49 55 66 68 76 82 70 49 38 34 42 73 80 87 97 98 100 98 100 96 100 100 100 100 99
93 94 96 91 77 62 57 57 53 30 18 9 10 12 14 14 24 47 56 60 73 77 77 68 60 48 35 31 56 79 84 98 100 100 96 84 78 100 98 93 94 99 100
100 100 94 77 69 63 63 47 30 17 9 11 12 14 14 20 39 63 64 60 66 74 75 61 54 44 35 32 69 82 92 100 100 100 46 33 37 68 63 57 46 47 62
99 90 82 73 71 65 49 30 16 9 11 13 14 16 16 28 38 49 56 61 82 84 63 58 44 39 33 36 73 77 100 100 100 94 24 28 36 77 87 83 100 100 100
100 93 83 74 69 54 37 18 9 10 15 14 18 18 29 38 39 45 61 81 79 68 60 51 43 33 31 42 73 82 100 100 100 92 19 26 57 70 81 98 100 100 100
99 86 80 74 63 40 20 10 10 16 18 17 21 26 39 42 49 68 76 74 66 57 54 45 36 31 31 47 74 86 100 100 91 98 16 22 35 70 74 92 93 94 100
100 97 74 67 47 24 11 10 14 20 19 25 28 35 43 68 74 72 75 65 58 53 45 39 31 31 31 48 76 91 100 100 77 100 41 16 22 30 57 72 81 83 88
100 87 63 59 32 14 10 13 19 21 26 32 38 55 68 70 68 75 72 64 58 49 42 38 31 31 31 42 76 99 100 100 79 78 100 26 15 19 22 26 34 41 47
88 64 59 48 19 9 13 16 23 26 36 40 42 43 58 70 76 77 69 66 55 48 41 37 30 32 34 37 80 91 96 100 87 67 76 100 27 14 15 17 18 20 21
70 61 57 26 10 12 16 22 28 36 45 49 50 45 66 79 76 68 68 62 54 46 39 35 30 32 38 30 53 85 94 100 99 80 71 56 99 62 19 14 15 15 15
67 61 34 12 11 16 19 25 37 42 48 55 57 54 83 78 71 68 68 63 55 46 37 32 32 38 44 38 32 73 90 96 100 97 80 77 46 74 99 64 32 21 15
68 45 14 11 16 18 21 29 44 47 52 58 63 87 89 80 77 75 74 70 60 48 38 32 34 44 49 51 44 37 86 93 98 100 99 81 75 48 38 56 95 82 72
56 15 13 14 20 20 24 38 48 57 64 73 86 97 95 89 86 85 84 80 67 55 40 33 31 38 46 51 57 51 35 82 97 98 100 100 78 71 53 38 34 31 30
16 16 16 22 21 24 30 45 53 65 72 85 92 90 90 92 94 97 97 95 81 66 49 36 31 30 29 33 40 53 49 34 64 95 98 100 100 65 62 63 52 45 36
16 18 21 26 24 31 38 52 58 69 77 83 87 87 86 92 96 99 100 100 96 80 64 48 37 30 27 26 26 27 32 46 38 47 91 97 100 100 87 47 50 44 33
17 22 29 28 29 38 44 60 70 71 74 80 86 89 93 98 94 94 99 100 100 99 81 65 49 38 29 26 26 24 24 25 28 44 40 84 95 100 100 100 90 55 35
21 28 33 30 34 49 54 69 80 86 90 96 95 93 95 98 96 96 98 100 100 100 100 90 69 55 42 34 29 27 26 26 28 29 34 37 56 96 99 100 100 100 90
26 33 36 31 39 56 70 78 89 93 96 96 96 98 96 93 92 93 98 100 100 100 100 100 98 87 59 46 42 34 29 28 28 29 31 31 34 37 90 100 100 100 100
32 38 37 30 38 58 81 86 89 96 95 97 100 100 100 98 97 100 100 100 100 100 100 100 100 100 86 61 47 42 39 30 32 34 34 32 34 34 33 60 100 100 100
45 41 38 30 35 54 77 94 95 96 97 97 97 100 100 100 100 97 100 100 100 100 100 100 100 100 100 86 70 67 66 47 33 37 46 49 44 37 35 36 38 86 100
47 42 39 31 33 51 66 87 94 96 96 98 96 93 92 93 97 74 74 100 100 100 100 100 100 100 100 100 86 69 71 73 51 38 44 58 64 61 56 49 44 43 49

GFSGL_500_rhum_021.txt.gz
RH
26 27 31 42 50 68 56 50 46 52 83 87 83 72 55 53 46 29 27 22 23 7 9 11 12 13 16 30 41 47 47 48 44 39 36 30 28 25 29 39 43 42 44
28 31 35 42 51 59 55 56 67 85 86 83 71 57 57 49 40 27 27 30 14 9 12 13 13 19 32 51 52 58 59 56 47 36 34 28 28 36 49 54 61 61 61
31 34 43 51 62 59 67 80 85 84 84 77 70 76 57 36 22 24 25 18 9 11 14 14 19 33 42 46 62 58 54 51 44 38 31 28 42 56 65 71 75 75 75
36 47 57 62 63 75 87 89 86 86 90 88 88 79 44 29 20 18 22 10 11 14 15 17 28 41 53 50 48 58 52 43 40 34 29 38 57 74 76 75 72 66 37
56 65 66 64 80 92 90 89 90 92 98 100 97 81 75 40 27 22 13 10 12 17 19 25 30 33 42 52 61 56 46 41 35 29 31 58 73 82 81 78 41 16 17
65 68 64 61 92 100 97 94 94 95 92 96 92 95 88 61 21 14 11 12 19 21 27 31 31 33 50 55 47 50 42 33 28 29 50 70 82 82 78 50 16 16 22
68 66 66 97 100 100 100 97 91 94 100 99 93 81 68 36 15 12 12 16 23 27 30 33 45 59 54 50 46 39 36 28 29 37 69 88 83 75 72 17 17 31 39
60 75 94 96 97 100 99 100 99 100 100 99 96 83 62 33 14 12 15 22 31 35 45 58 63 60 47 46 42 38 33 29 31 68 78 84 74 81 30 16 28 40 56
83 89 77 88 100 100 100 100 100 100 99 98 97 63 30 18 12 15 23 30 39 57 59 59 64 51 45 41 38 36 29 31 46 77 85 92 69 85 17 18 40 46 70
79 80 99 100 100 100 100 100 100 100 99 100 76 59 16 11 14 20 30 36 36 53 63 62 51 51 44 38 35 30 31 32 58 88 92 91 68 84 18 20 51 72 97
93 98 100 100 100 100 100 100 100 100 99 99 71 17 12 14 16 29 37 40 40 62 68 56 51 47 41 34 31 28 31 32 70 86 95 92 69 87 20 20 56 70 96
96 100 100 100 100 100 100 100 100 99 92 58 21 11 13 17 24 33 37 43 55 74 61 59 55 48 37 30 28 31 33 33 60 93 99 97 77 82 46 20 42 76 88
100 100 100 100 100 100 100 100 100 87 51 26 14 13 18 21 31 40 46 52 80 70 65 64 58 49 35 28 30 35 38 35 49 92 100 100 92 62 94 22 25 44 72
100 100 100 100 100 100 100 98 89 54 26 13 14 19 22 32 41 44 54 84 80 76 73 73 63 50 35 29 29 34 39 44 39 75 98 100 100 81 74 81 23 26 38
100 100 100 100 100 100 92 65 40 15 13 15 21 23 28 45 53 64 81 92 86 80 82 80 70 56 42 30 26 26 31 42 47 44 91 100 100 100 66 84 80 30 26
100 100 100 100 99 92 83 40 21 15 18 22 26 25 41 52 67 78 90 90 86 86 88 88 79 66 52 36 26 24 24 27 44 46 49 98 100 100 95 62 92 96 65
100 100 100 91 54 25 16 16 18 20 20 27 31 31 50 66 82 90 92 90 89 91 97 95 89 78 65 52 37 25 21 21 24 37 42 52 99 100 100 85 61 89 100
100 96 71 39 16 13 16 20 23 23 24 34 33 38 55 70 84 93 92 89 92 95 94 95 94 91 82 70 58 44 30 21 20 22 27 40 54 100 100 100 79 58 72
61 25 17 15 13 14 21 28 31 31 34 41 40 44 61 78 80 88 94 95 94 94 96 100 100 98 97 92 78 65 50 33 23 19 20 22 37 53 100 100 100 81 60
22 19 17 15 15 23 31 33 41 39 42 45 44 60 71 84 100 99 100 99 99 99 98 95 95 99 96 99 99 85 69 54 36 24 19 20 21 34 47 99 100 100 88
24 26 20 14 19 25 31 36 45 44 45 48 44 68 94 96 100 100 100 100 100 100 100 100 100 97 99 98 100 98 91 75 58 37 24 20 21 22 31 41 97 100 100
30 28 18 18 27 31 37 38 42 46 47 49 44 59 98 100 100 100 100 100 100 100 100 100 100 100 99 100 99 100 100 97 77 49 33 24 23 24 24 28 37 86 100
29 19 19 27 34 39 41 46 42 48 49 50 44 52 88 100 100 100 100 100 100 100 100 100 100 100 100 99 100 100 98 100 94 66 48 29 28 25 27 26 27 33 67
18 20 26 30 34 43 46 49 50 52 51 52 47 50 78 100 100 100 100 100 100 95 98 100 100 100 99 99 100 100 100 99 100 90 74 48 33 29 27 32 30 28 31
20 25 28 32 34 41 48 51 55 59 56 54 52 49 71 99 100 100 100 100 100 100 97 98 97 76 89 100 100 100 100 100 99 97 86 69 54 36 30 29 38 41 33
23 20 19 20 24 30 36 45 56 62 62 58 57 56 74 100 100 100 100 100 100 100 100 100 98 96 75 81 100 100 100 100 100 98 92 79 78 57 42 35 32 35 47

GFSGL_500_rhum_024.txt.gz
RH
27 29 29 30 31 31 35 47 63 69 70 78 84 80 81 79 84 84 80 64 78 64 58 21 13 10 13 15 16 19 29 38 33 39 55 50 43 37 32 28 26 25 26
33 32 33 33 36 44 59 61 64 67 78 88 81 78 80 76 71 74 75 74 87 78 35 16 10 12 15 17 20 31 41 45 42 36 47 41 36 33 29 26 28 40 48
36 41 46 43 63 69 70 67 66 71 82 82 81 82 88 88 75 74 83 96 85 53 23 12 10 13 18 25 27 28 36 41 50 51 39 37 31 28 28 31 48 59 63
47 60 55 64 73 73 69 66 73 83 84 90 83 82 92 91 98 100 96 94 63 25 16 10 13 16 22 27 28 29 40 49 44 39 36 32 27 28 36 49 62 77 66
59 62 76 75 84 65 66 79 80 77 82 89 97 100 100 98 100 98 93 62 26 16 12 13 18 19 20 31 36 52 52 40 39 38 36 29 28 36 56 70 77 64 60
67 75 71 69 63 77 79 70 72 86 86 97 100 100 100 100 100 97 66 29 15 12 12 18 25 32 29 50 48 48 44 41 39 35 31 27 33 57 76 86 65 52 16
74 68 62 74 77 76 78 81 96 93 98 100 100 100 100 100 100 90 42 18 13 14 18 23 28 41 46 45 41 37 38 36 32 30 27 31 63 85 76 67 63 19 15
68 67 83 80 81 78 96 97 100 100 100 100 100 100 100 98 95 39 18 12 16 19 23 26 29 38 46 44 44 44 39 33 29 27 29 45 79 85 80 64 44 16 21
72 78 78 98 89 75 90 100 100 100 100 100 100 99 97 95 31 14 13 14 19 26 29 30 35 55 48 44 46 42 34 29 28 29 32 65 88 89 74 64 27 17 40
73 88 80 75 98 100 99 100 100 100 100 100 100 100 95 79 19 13 14 18 22 29 32 34 49 59 54 52 48 39 31 26 29 33 44 85 93 94 72 66 24 20 52
95 100 98 100 100 100 100 100 100 100 100 100 99 88 36 17 12 18 20 22 33 36 40 56 60 62 59 55 48 36 28 27 32 35 39 83 97 95 76 67 29 21 65
86 84 100 100 97 100 100 100 100 100 100 94 61 20 14 13 12 21 24 30 38 40 61 77 75 69 68 59 48 35 28 26 31 38 38 73 99 96 87 68 54 23 42
83 100 100 100 100 100 100 100 100 99 73 27 18 14 15 16 19 25 30 42 45 55 84 89 83 80 74 64 50 36 28 25 30 37 42 54 99 99 97 66 88 26 28
100 100 100 100 100 100 100 100 93 57 28 14 13 17 20 23 29 28 31 48 58 77 89 91 94 92 86 71 56 39 27 24 24 28 45 44 88 100 100 81 85 67 29
100 100 99 100 100 100 100 77 32 19 14 15 24 26 27 32 37 36 39 50 59 86 91 94 98 100 95 81 68 51 34 23 20 22 27 44 51 100 100 100 72 100 66
60 61 96 100 100 84 48 23 20 18 15 23 30 33 34 38 41 44 59 71 76 83 88 94 100 100 99 94 82 70 55 38 24 19 21 27 41 67 100 100 89 82 100
36 79 100 62 39 31 26 25 24 23 16 23 34 42 43 47 47 52 64 72 86 87 94 98 98 100 100 100 99 88 78 62 42 28 18 19 24 39 83 100 100 76 88
51 50 45 44 44 44 35 29 30 21 18 26 33 41 48 49 51 61 72 82 90 93 99 99 96 95 100 100 100 100 95 85 66 51 33 19 19 22 37 92 100 100 71
44 51 44 43 56 56 36 31 22 19 28 33 39 45 50 51 52 73 83 93 98 100 100 100 100 99 100 100 100 100 100 99 89 72 52 32 19 20 23 36 98 100 100
40 43 55 67 53 38 36 24 19 24 32 40 45 48 51 52 52 81 99 100 100 100 100 100 100 100 100 100 100 100 100 97 100 96 74 44 25 19 22 25 37 100 100
63 74 68 49 44 42 28 22 26 28 32 44 48 52 56 54 52 63 100 100 100 100 100 100 100 100 100 100 100 99 100 98 96 99 94 64 35 21 21 24 25 35 99
77 64 54 46 35 23 23 28 32 35 37 43 48 52 59 57 54 59 100 100 100 100 100 100 100 100 100 100 100 100 100 99 99 100 100 80 58 33 21 22 26 26 33
60 49 34 22 20 21 24 27 28 30 35 44 52 54 61 59 56 58 92 100 100 100 100 100 100 100 100 100 100 100 99 100 100 100 100 97 79 48 36 24 23 27 27
36 22 16 18 20 19 16 15 18 20 23 31 47 59 66 64 61 63 78 100 100 100 100 100 100 100 100 99 100 94 97 99 98 100 97 98 94 62 60 41 26 25 31
18 16 17 14 12 14 15 16 19 22 25 28 36 55 70 70 66 71 87 100 100 100 100 100 100 100 100 100 98 94 87 98 100 97 99 96 91 72 63 66 46 32 27
16 14 11 12 14 16 18 20 23 26 28 30 36 47 66 77 75 75 85 100 100 100 100 100 100 100 100 100 100 100 100 94 100 98 98 100 99 99 76 82 67 54 40

GFSGL_500_rhum_027.txt.gz
RH
40 42 42 39 44 54 62 69 55 67 89 74 60 67 72 62 55 70 79 77 76 78 100 100 99 54 24 15 10 11 14 20 15 15 22 32 34 37 36 32 29 28 26
42 41 41 60 63 64 64 55 61 69 66 56 70 63 65 65 81 84 78 85 92 100 100 100 97 38 18 12 12 16 20 21 16 18 31 39 33 33 31 29 28 26 23
54 59 62 59 59 54 57 68 60 56 66 61 63 74 81 96 100 100 96 100 100 100 100 92 37 18 12 12 16 25 22 22 27 32 33 33 33 34 33 32 27 25 29
73 64 60 53 56 66 74 62 61 69 54 57 66 66 91 97 91 100 100 100 100 100 98 50 16 11 12 19 25 36 37 40 39 35 34 34 34 33 32 26 26 40 53
49 59 54 59 75 79 64 68 73 70 76 92 92 97 94 84 100 100 100 100 100 88 70 18 12 13 17 23 28 42 45 40 40 35 37 35 30 26 26 29 45 54 74
55 61 72 77 67 67 72 78 75 68 74 65 75 100 100 100 100 100 100 100 97 33 15 11 13 20 26 25 28 43 46 38 40 38 34 27 25 24 27 47 61 70 59
74 71 57 62 76 80 83 84 77 81 72 100 95 89 99 100 100 100 99 90 27 12 11 15 22 30 36 32 42 45 42 42 40 35 27 23 24 25 41 68 66 62 49
54 56 72 80 83 78 82 80 100 100 100 100 100 100 100 98 100 99 69 29 12 12 16 21 31 36 37 49 57 55 51 47 42 31 24 23 25 29 50 69 72 58 49
74 80 77 70 69 100 100 100 100 100 100 100 100 100 100 100 81 32 16 14 12 18 23 29 38 41 55 65 64 62 58 48 36 28 25 26 27 32 58 79 76 53 44
70 67 70 68 78 100 100 98 100 100 100 100 100 100 96 56 23 13 14 16 18 25 29 37 44 60 75 73 71 66 58 45 33 27 26 27 31 38 72 82 79 58 38
72 72 91 100 100 100 100 100 100 98 100 100 99 83 32 16 13 16 23 23 25 30 40 47 56 83 87 83 79 71 58 44 32 26 26 28 36 42 86 90 82 61 44
77 85 91 100 100 100 100 99 100 100 100 94 63 28 21 18 14 21 28 27 33 38 50 59 73 84 86 88 86 77 62 47 33 24 23 26 41 44 84 95 86 64 60
77 65 55 28 26 39 36 48 89 97 54 32 26 24 26 18 18 28 33 36 39 49 57 70 82 89 91 92 94 88 72 54 37 25 20 21 32 44 75 99 93 70 85
28 14 7 6 7 8 15 48 53 44 45 51 44 32 27 19 22 32 37 40 42 49 72 76 84 90 90 99 100 99 87 72 52 32 21 19 21 39 51 100 97 76 88
6 6 5 5 7 11 23 44 47 46 53 57 39 34 23 21 28 35 40 41 44 51 76 89 91 96 100 100 100 100 98 92 78 53 35 20 18 22 39 87 100 95 81
5 5 6 8 12 27 43 48 46 55 62 47 40 35 22 26 37 44 46 48 47 56 76 85 96 98 100 99 99 100 100 100 97 82 58 39 21 18 26 48 100 100 78
6 8 10 15 28 36 35 47 65 70 53 44 39 28 24 30 40 51 52 53 52 58 78 87 94 99 100 100 98 100 100 100 100 99 82 64 38 19 19 30 80 100 98
9 11 19 34 37 40 70 79 72 57 50 42 26 26 31 33 40 53 55 56 58 73 93 97 100 100 100 100 100 100 100 100 99 99 97 87 62 28 19 22 36 100 100
10 13 28 56 74 79 73 61 55 47 32 21 22 32 38 37 43 54 58 59 59 85 100 100 99 99 100 100 100 99 100 100 98 99 98 96 81 46 21 21 27 63 100
16 30 65 80 77 65 56 48 38 23 18 19 21 28 35 38 45 53 60 63 59 79 100 100 100 100 100 100 100 100 100 100 100 99 99 100 91 65 28 20 24 29 84
36 68 77 63 58 56 47 32 20 19 19 19 21 22 24 28 42 54 61 65 62 79 100 100 100 100 98 99 100 100 100 100 100 95 98 96 95 84 39 26 22 25 31
61 60 56 58 54 42 25 18 19 17 14 12 15 18 20 23 36 58 63 66 64 71 100 100 100 100 100 100 100 98 100 100 100 96 92 96 97 98 60 45 26 23 27
71 66 59 47 34 20 17 17 13 13 14 14 18 20 23 26 34 58 70 72 69 77 92 100 100 100 100 100 100 100 98 98 100 96 95 99 98 98 81 58 49 29 24
57 44 38 22 17 18 14 10 11 14 15 16 17 23 28 28 31 51 73 79 77 90 100 100 100 100 100 100 100 100 100 99 97 91 89 94 99 98 90 68 60 53 36
41 24 16 18 18 11 10 10 12 13 14 16 16 21 27 30 32 41 67 83 86 89 95 100 100 100 100 100 100 100 98 100 100 100 88 91 94 98 97 90 76 69 56
17 17 20 16 10 10 8 9 10 12 15 17 18 18 23 30 30 33 48 80 91 96 99 100 100 100 100 100 100 100 96 99 100 100 97 94 93 95 94 93 86 80 64

GFSGL_500_rhum_030.txt.gz
RH
47 62 67 68 70 81 77 59 64 64 66 77 75 64 61 69 78 78 76 86 100 100 98 88 87 94 100 100 90 39 18 13 12 12 14 16 16 22 29 27 24 26 27
64 82 87 90 95 86 50 56 60 71 80 69 62 62 72 80 72 69 75 68 68 96 88 76 95 100 100 87 42 18 12 12 17 17 19 30 40 32 23 26 30 31 28
75 91 94 80 78 47 47 61 76 67 61 64 65 65 78 68 82 93 72 72 77 100 88 97 100 100 78 30 13 11 14 20 23 21 30 43 39 30 27 30 26 23 25
98 95 81 59 48 63 66 64 62 64 64 62 60 63 71 79 92 88 98 100 97 97 100 100 84 40 22 13 12 18 24 26 27 33 45 43 36 34 30 25 22 21 24
83 69 54 59 74 70 61 63 63 62 61 65 82 92 85 79 70 100 100 96 100 100 94 52 29 16 13 15 21 27 29 31 40 49 49 46 41 35 27 22 19 23 43
56 57 67 72 61 57 63 57 59 69 67 70 78 86 81 95 100 100 100 100 99 68 32 17 13 14 19 23 27 34 34 44 56 53 54 48 38 28 23 21 20 29 60
61 62 58 54 59 62 66 68 67 59 92 100 97 99 100 100 100 100 100 84 46 21 12 14 19 21 27 30 38 41 57 60 56 52 50 41 30 24 23 24 25 41 54
74 75 68 75 71 69 66 64 83 100 100 100 100 100 100 100 100 96 57 27 18 14 13 21 23 27 30 39 45 69 75 71 65 58 46 35 28 25 24 26 32 59 62
59 74 85 96 72 66 61 95 100 99 100 100 100 100 100 100 74 34 27 25 20 15 16 25 28 32 36 47 73 86 84 78 69 56 44 33 26 23 23 29 37 64 72
93 75 71 85 86 93 100 89 100 99 88 22 53 34 44 46 47 49 41 31 22 17 24 33 36 38 48 66 89 88 88 86 75 57 42 30 24 22 23 29 40 76 73
84 84 80 78 77 59 75 72 15 10 8 9 14 30 43 46 54 49 40 34 22 22 35 40 41 44 62 81 88 88 96 96 81 62 45 29 21 20 25 35 46 84 86
80 81 76 61 36 10 6 7 7 7 8 14 26 44 48 50 60 48 42 33 23 28 43 46 46 51 76 88 91 92 96 94 87 75 53 34 23 18 20 37 51 86 85
79 68 48 23 8 7 6 6 6 8 13 27 38 39 50 68 63 49 44 29 24 32 51 52 53 55 82 93 87 93 96 97 95 91 74 49 34 20 18 31 46 89 90
67 45 20 8 7 6 6 7 9 13 25 33 34 46 69 68 58 50 35 24 27 37 55 57 59 61 84 98 94 94 97 99 100 98 90 73 51 33 17 20 36 80 96
47 24 10 7 6 7 8 10 12 22 33 42 60 74 70 58 51 38 24 24 30 38 53 60 61 69 84 96 96 97 100 100 99 97 94 91 74 50 24 17 27 62 100
21 11 7 7 8 9 10 14 27 40 61 81 82 70 55 50 38 24 22 27 34 40 54 63 64 80 90 99 100 100 100 98 97 94 96 94 91 70 38 18 20 36 95
10 7 7 8 9 11 14 24 39 66 76 69 76 65 49 33 24 20 23 29 36 43 56 63 68 92 100 100 100 100 100 97 96 95 96 98 96 80 57 23 18 25 78
7 8 9 10 12 16 26 36 46 49 46 49 57 44 26 20 19 21 24 30 38 50 57 65 68 98 100 100 100 100 100 98 98 93 97 100 97 90 72 31 19 23 43
8 9 10 13 15 23 36 54 60 58 57 49 38 24 20 19 18 16 19 26 38 52 61 67 69 96 100 100 100 100 95 97 98 94 97 96 99 95 84 39 22 21 27
10 12 15 20 34 48 65 67 59 48 38 27 19 18 17 14 15 18 20 26 36 60 68 70 69 96 100 100 100 100 100 100 100 100 98 98 98 98 91 52 30 21 25
13 14 18 30 50 59 50 44 39 27 17 18 18 13 10 10 14 18 22 24 35 69 75 75 72 99 100 100 100 100 100 100 100 100 100 100 95 98 94 70 42 25 22
18 26 40 49 47 42 36 23 17 17 19 14 10 10 10 13 15 17 23 25 29 65 82 81 82 99 100 100 100 100 100 100 100 100 100 100 94 96 95 85 55 42 25
36 40 42 43 35 24 18 17 17 18 12 10 10 10 13 16 16 17 22 26 29 57 92 94 100 100 100 100 100 100 100 100 100 99 99 98 94 92 97 97 66 59 43
44 39 37 31 20 16 15 16 20 14 11 10 10 11 13 14 16 18 22 26 30 44 95 100 100 100 100 100 100 100 100 100 100 100 99 100 93 94 94 98 84 68 63
39 37 24 19 18 14 16 22 18 14 13 11 10 10 11 14 16 17 20 24 31 36 64 100 100 100 100 100 100 100 100 100 100 100 100 100 100 96 93 94 96 94 74
26 20 22 21 17 18 22 20 16 16 16 14 11 10 12 15 17 20 22 24 29 36 43 80 100 100 100 100 100 100 100 100 100 100 100 100 100 100 98 94 96 93 89

GFSGL_500_rhum_033.txt.gz
RH
32 42 61 57 72 65 64 59 75 64 56 64 71 67 62 68 77 78 77 81 90 100 86 66 60 66 79 94 99 92 44 30 23 19 18 16 17 19 21 21 26 25 30
34 36 64 76 99 84 69 83 70 63 76 75 57 62 72 80 78 72 75 90 80 80 89 81 86 89 100 100 56 21 18 17 16 16 18 21 25 25 21 27 35 35 26
85 90 92 76 74 87 95 74 75 88 63 60 77 84 75 74 71 86 92 90 94 87 76 77 100 100 75 21 13 12 14 16 18 22 26 29 28 29 33 36 34 34 33
92 92 84 91 90 86 77 76 72 62 70 73 72 70 80 78 79 100 99 94 92 94 69 96 84 31 20 15 12 14 20 22 26 31 35 33 40 46 43 38 42 36 28
46 38 64 72 81 86 79 75 62 72 67 65 70 75 100 100 100 100 97 82 92 88 71 31 30 23 18 14 14 23 24 28 34 39 49 55 58 55 51 46 38 29 25
28 41 60 78 88 80 62 55 69 70 100 100 68 91 100 100 76 45 96 77 50 23 30 35 35 25 20 15 23 28 31 33 42 59 66 61 64 58 48 37 30 25 26
39 39 46 50 50 59 64 74 70 64 67 65 100 100 100 88 94 86 28 18 23 36 44 40 35 30 20 20 33 36 35 41 56 66 69 64 62 51 40 31 27 23 22
35 38 52 54 57 65 75 76 73 84 86 75 54 65 81 100 19 21 15 26 42 50 53 46 39 27 20 28 40 40 44 57 74 73 70 70 60 47 34 26 24 23 26
32 45 64 64 75 98 89 100 81 82 69 30 12 28 19 8 10 14 32 39 44 56 59 48 38 23 22 34 45 44 59 74 82 82 81 78 64 45 30 22 22 26 36
37 54 79 87 81 97 84 78 67 48 22 8 8 8 8 9 16 32 37 36 49 65 56 46 32 22 24 42 50 49 71 84 90 90 89 85 70 49 32 22 18 26 34
44 70 89 88 86 85 79 64 36 15 8 8 8 9 9 16 32 35 35 49 77 70 56 42 26 23 29 46 53 54 81 92 92 97 97 89 80 61 39 26 18 20 35
63 85 90 86 82 78 61 32 12 8 8 9 9 10 16 25 33 42 65 85 84 67 50 33 23 26 35 48 55 60 88 94 98 99 93 90 85 77 53 36 22 17 29
94 92 88 84 82 61 33 14 8 8 8 9 11 14 21 38 62 85 92 81 72 57 41 26 23 30 43 50 58 68 92 99 97 93 90 87 88 85 74 52 28 16 23
94 90 88 81 60 38 15 8 8 8 9 11 15 22 31 47 74 84 77 65 57 44 26 23 26 41 51 55 61 72 87 100 99 93 89 89 88 88 81 65 37 17 19
92 90 78 58 34 14 8 8 8 10 12 14 24 34 44 57 71 70 65 55 38 25 21 24 34 50 54 63 66 76 94 99 100 91 92 93 88 86 84 73 48 20 18
89 77 53 27 11 8 8 9 11 12 16 22 31 54 78 77 67 57 46 34 23 21 21 24 43 60 61 70 73 90 100 100 97 93 97 97 90 86 87 80 58 23 19
73 38 14 8 8 9 11 12 13 14 26 41 58 65 58 50 42 34 24 19 20 18 16 19 41 63 70 76 87 100 100 100 98 96 98 98 93 88 90 83 66 28 19
26 10 8 9 10 11 12 13 16 21 28 38 45 43 39 28 20 19 20 18 14 13 15 19 39 73 79 82 99 100 100 100 99 97 98 98 96 92 92 86 72 34 21
10 8 10 11 12 13 15 22 33 36 36 37 34 24 18 18 18 19 15 11 14 17 16 18 29 69 84 86 98 100 100 100 100 96 99 99 99 95 91 89 82 42 25
10 11 11 13 14 20 32 40 39 33 33 28 20 15 14 17 17 11 10 11 14 17 18 20 24 57 85 87 99 100 100 100 100 94 99 98 98 99 91 90 89 47 34
11 13 14 17 28 39 44 41 31 27 19 18 17 14 17 18 12 10 10 10 12 18 20 22 26 49 86 91 98 100 100 100 100 99 100 100 100 100 95 93 92 55 46
15 16 23 31 40 38 34 25 17 18 20 20 17 18 20 14 12 11 10 11 15 19 20 24 29 48 91 96 100 100 100 100 100 100 100 100 100 100 99 96 94 74 52
22 28 34 39 37 32 20 21 22 23 21 20 22 22 18 16 14 13 11 10 13 19 23 26 30 46 96 100 100 100 100 100 100 98 100 100 100 100 100 96 99 95 65
35 39 37 33 22 21 24 22 23 22 23 26 23 20 19 19 19 18 15 14 14 18 25 30 32 43 100 100 100 100 100 100 100 100 100 100 98 99 100 94 96 100 88
38 33 22 21 22 17 10 20 25 28 30 27 24 22 21 20 20 18 17 17 19 23 27 35 39 40 84 100 100 100 100 100 100 100 100 100 100 96 100 100 97 98 100
27 22 24 22 11 6 15 29 34 34 29 22 19 19 17 15 15 16 16 18 22 30 33 32 44 47 53 100 100 100 100 100 100 100 100 100 100 99 98 100 100 99 100

GFSGL_500_rhum_036.txt.gz
RH
33 33 46 57 76 89 90 98 86 61 70 73 85 62 58 64 69 67 66 64 72 97 100 100 100 41 13 12 8 12 13 18 19 14 13 16 20 20 23 27 30 28 28
72 72 71 88 94 96 61 56 45 49 73 77 68 61 67 77 76 78 83 75 81 90 99 100 75 26 14 9 13 15 21 22 19 14 16 23 26 28 30 31 35 39 40
65 68 89 83 74 28 27 35 45 72 67 68 72 78 82 97 100 97 88 64 100 100 99 80 48 8 10 12 18 24 26 19 18 16 25 29 31 36 37 47 53 52 52
63 69 62 39 24 28 35 37 44 57 80 97 88 92 77 85 100 95 80 95 94 77 64 32 9 10 14 25 31 36 25 23 17 24 34 33 37 44 52 52 60 56 51
42 42 28 24 30 33 36 40 59 80 70 69 81 88 85 100 100 94 81 38 16 42 30 10 11 18 27 37 46 36 29 21 20 35 38 39 53 57 64 62 57 51 42
6 12 20 24 31 36 42 89 89 70 69 80 99 100 100 100 86 89 100 16 14 10 10 12 21 31 36 54 50 37 28 20 26 41 44 49 70 67 66 62 53 44 33
8 15 22 32 39 42 52 80 74 72 77 100 100 94 86 71 65 93 27 8 9 10 12 24 33 36 57 69 51 38 25 21 33 46 50 65 75 68 67 64 52 36 27
14 21 30 40 41 42 42 52 75 95 90 100 85 80 72 44 30 12 9 10 11 13 21 33 37 54 83 78 53 36 23 25 40 47 54 75 76 78 74 70 57 34 22
20 28 39 47 49 52 57 81 100 96 92 89 86 74 39 14 9 9 10 12 12 20 35 46 65 95 86 70 51 31 22 30 47 52 65 84 86 83 77 73 64 42 23
27 38 51 57 61 70 85 100 98 94 91 88 65 34 14 9 10 11 11 13 19 32 57 86 100 94 79 59 38 25 24 37 54 57 77 92 91 87 80 74 67 55 34
42 54 58 63 77 95 99 94 94 91 79 56 32 13 9 10 10 11 15 20 33 48 81 100 94 82 64 38 26 25 28 47 59 60 89 97 96 93 84 79 71 63 44
53 60 65 79 97 100 99 95 90 75 49 24 12 9 9 10 12 16 20 26 42 69 87 85 79 59 35 26 26 31 37 58 64 67 89 99 100 96 85 80 77 72 53
63 70 83 99 100 92 89 85 71 42 20 10 8 9 11 13 18 22 27 43 68 79 73 65 45 32 26 25 27 42 48 66 69 78 95 100 100 94 86 84 82 78 62
74 81 88 87 86 83 79 70 44 17 10 9 10 11 13 14 19 29 39 51 55 50 44 38 27 23 23 23 28 55 60 71 76 90 99 100 100 92 87 87 88 85 73
80 83 83 82 78 77 68 40 19 10 10 10 12 12 14 17 29 38 46 45 39 29 22 20 20 20 19 18 25 55 71 79 85 98 100 100 99 92 94 93 90 85 74
82 81 79 78 75 66 45 20 10 11 13 14 16 24 29 40 38 35 38 35 27 20 17 19 19 15 13 16 25 56 77 86 90 99 100 100 100 95 98 96 91 85 80
87 85 87 79 58 33 14 11 10 12 13 17 26 36 47 42 32 28 24 21 16 16 18 17 14 14 18 19 28 59 81 89 95 100 100 100 100 98 98 99 93 90 83
92 93 87 61 36 19 12 11 11 12 12 14 25 29 28 23 17 18 19 18 15 18 15 12 13 23 22 20 25 60 82 90 95 100 100 100 100 99 99 100 94 93 87
100 94 66 33 16 12 11 13 16 16 19 20 21 22 18 19 21 23 20 18 18 17 12 11 15 23 18 20 24 52 86 96 100 100 100 100 100 100 100 99 95 94 91
100 74 34 19 14 13 16 17 17 19 19 15 15 16 16 19 22 21 22 23 20 14 11 12 14 18 18 21 26 47 90 100 100 100 100 100 100 100 100 98 96 95 96
78 46 26 17 16 19 19 19 17 12 12 16 13 6 8 22 23 25 25 21 18 15 13 12 12 17 21 24 29 53 94 100 100 100 100 100 100 100 100 96 95 98 100
67 41 24 20 21 20 19 13 12 15 16 11 6 10 24 30 32 28 24 22 20 20 19 16 13 16 23 27 32 56 100 100 100 100 100 100 100 100 100 98 97 96 100
65 31 26 25 24 17 13 15 18 16 10 7 9 23 35 36 30 23 23 23 23 23 22 21 19 18 28 31 38 67 100 100 100 100 100 100 100 100 100 100 99 95 100
36 32 29 25 16 15 18 20 18 10 8 8 19 33 36 26 16 17 18 19 20 21 22 22 23 33 27 34 48 85 100 100 100 100 100 100 100 100 100 100 100 100 100
45 33 24 20 19 22 24 23 16 9 8 12 29 36 30 18 16 15 15 16 17 19 22 26 31 44 39 42 56 94 100 100 100 100 100 100 100 100 100 100 100 100 100
34 24 25 24 25 28 26 22 14 10 10 18 34 32 20 18 17 17 17 16 16 18 14 20 35 57 67 48 76 83 100 100 100 100 100 100 100 100 100 100 100 100 99

GFSGL_500_rhum_042.txt.gz
RH
18 18 20 27 84 95 94 85 77 84 99 99 100 92 91 64 45 53 80 94 100 90 100 100 100 100 100 100 100 100 62 18 11 9 12 17 21 35 43 43 44 37 20
25 24 31 81 88 93 70 70 80 87 87 92 70 43 41 42 51 75 92 87 86 87 94 100 100 100 100 100 100 69 21 9 9 10 18 29 44 59 54 53 46 32 20
25 36 58 67 75 51 19 14 22 25 17 23 28 36 38 41 61 66 71 100 100 100 100 100 100 100 100 92 44 19 9 9 12 17 27 52 68 70 61 55 41 24 26
28 36 45 45 32 21 15 19 14 13 20 27 28 36 42 67 100 74 97 100 100 100 100 100 100 99 74 33 12 9 10 13 20 28 42 67 76 78 66 49 31 23 38
39 35 36 22 15 18 11 13 17 18 19 22 29 32 48 62 98 82 79 94 96 92 94 98 88 54 21 11 9 11 14 19 29 41 58 80 85 76 57 32 27 27 47
29 10 9 10 10 12 16 17 17 18 21 23 30 49 54 61 75 89 96 93 96 93 90 73 42 22 12 10 12 14 20 30 40 54 80 89 83 56 35 28 25 40 52
9 11 10 10 12 14 19 21 22 23 24 28 36 53 64 89 88 93 95 85 74 67 57 44 24 14 12 13 15 18 25 34 44 64 73 64 50 37 31 26 32 53 62
12 11 11 13 16 21 27 29 29 29 32 42 56 66 75 90 95 84 69 59 54 50 43 33 20 14 13 14 21 29 35 37 44 56 53 45 33 27 27 29 47 64 73
12 13 13 15 22 32 38 39 38 37 44 60 67 78 87 87 76 70 66 62 59 52 46 34 20 12 16 20 34 39 44 42 46 44 38 29 25 27 28 36 61 67 79
14 15 18 22 31 42 48 46 45 51 62 68 70 73 75 74 70 72 69 64 61 59 41 21 12 14 24 30 39 50 51 46 38 35 31 26 25 24 29 51 73 75 86
17 18 20 28 43 53 53 52 54 62 66 68 75 77 78 73 70 74 76 74 69 60 41 16 10 12 18 33 40 40 36 30 27 29 26 22 22 22 30 60 79 84 89
21 24 27 37 50 57 59 60 64 66 68 75 76 76 74 73 76 80 83 78 65 48 28 10 9 10 15 23 28 28 26 25 29 27 22 22 21 25 54 83 88 93 92
28 34 46 58 63 65 67 68 64 64 69 72 71 72 74 79 85 86 82 70 43 18 10 9 10 12 16 18 23 26 27 26 24 22 21 18 20 56 73 100 100 97 94
44 50 53 62 68 71 68 63 63 64 65 68 71 73 79 84 80 79 71 55 28 12 8 8 10 14 15 13 13 23 29 26 21 20 17 16 21 36 86 100 100 100 96
52 57 65 69 68 64 61 62 63 63 68 69 72 80 78 76 76 67 56 35 14 7 8 10 12 9 7 7 16 30 28 24 21 18 14 23 31 53 97 100 100 100 97
66 70 68 64 60 61 63 60 65 68 68 75 80 76 81 75 66 48 23 10 9 9 11 12 8 6 9 20 27 26 25 22 18 15 21 29 32 74 100 100 100 100 98
69 62 59 60 62 62 64 67 71 73 83 89 93 88 77 65 37 18 11 9 10 12 13 13 7 11 22 26 27 25 21 17 18 17 35 34 35 99 100 100 100 100 100
67 62 62 65 66 67 70 74 79 82 87 93 85 76 61 31 16 11 10 11 14 15 15 10 10 26 33 32 26 22 17 15 16 22 44 30 37 100 100 100 100 100 100
74 80 80 77 73 75 80 85 88 91 92 84 74 59 30 15 12 12 15 18 16 14 10 9 15 34 31 28 28 22 18 15 16 37 49 28 50 100 100 100 100 100 100
98 100 92 88 83 87 89 92 96 94 84 73 52 24 15 13 12 17 21 20 14 9 9 11 24 32 24 20 25 25 22 18 19 36 34 28 72 100 100 100 100 100 100
99 96 98 99 98 96 98 100 96 83 71 44 20 16 14 14 18 24 24 21 12 8 10 13 27 25 18 18 22 26 26 25 24 35 28 32 89 100 100 100 100 100 100
100 99 100 100 100 100 100 95 83 67 35 19 17 15 15 20 25 29 28 23 13 10 11 14 23 21 18 18 21 24 27 29 31 42 36 46 100 100 100 100 100 100 100
100 100 100 100 100 100 94 80 58 27 20 18 17 18 22 24 30 32 32 24 14 12 12 16 21 21 20 20 19 23 27 33 36 50 50 63 100 100 100 100 100 100 100
100 100 100 100 98 90 74 51 30 23 20 21 22 24 25 28 34 35 32 21 16 15 15 19 22 22 21 20 20 20 26 68 64 65 58 83 100 100 100 100 100 100 100
98 98 98 94 82 56 40 40 30 25 26 27 28 27 29 36 40 36 27 20 18 18 20 24 25 22 20 22 25 26 28 77 99 86 74 100 100 100 100 100 100 100 100
98 95 85 63 54 43 35 34 34 33 32 31 30 32 38 49 42 31 23 21 21 23 27 30 27 22 22 24 25 24 25 49 100 87 94 100 100 100 100 100 100 100 100

GFSGL_500_rhum_045.txt.gz
RH
18 20 19 25 25 25 37 81 80 78 49 46 50 37 42 44 77 60 31 30 40 46 85 96 82 100 99 100 100 100 100 95 73 39 20 15 14 12 14 17 24 34 52
22 28 38 35 24 35 49 51 64 48 17 11 13 14 14 22 76 43 32 40 57 100 100 100 100 88 98 100 97 91 75 50 36 32 24 15 13 18 21 26 38 66 67
62 45 33 32 32 28 44 44 29 24 14 13 14 15 15 17 23 26 35 49 70 98 100 100 98 100 99 82 66 51 46 43 36 26 18 13 16 24 29 37 52 66 64
50 29 24 26 39 55 56 37 49 26 13 15 17 18 20 22 25 36 44 51 64 77 97 100 100 80 68 58 54 53 48 42 32 19 14 18 27 34 37 44 54 52 45
38 38 59 61 56 47 36 14 15 14 13 18 22 25 27 29 34 48 55 60 66 97 100 97 76 68 65 62 61 57 46 32 18 18 25 34 40 42 46 51 52 42 30
64 59 59 38 15 11 11 11 11 14 19 26 30 34 34 37 43 50 58 65 79 89 90 78 74 72 71 73 71 59 39 22 18 32 42 50 52 50 47 43 39 35 29
45 35 19 10 12 11 11 12 14 16 22 32 42 44 44 46 55 63 64 67 74 84 81 75 70 76 79 78 71 58 36 17 18 28 41 56 60 56 44 36 34 30 24
30 15 13 13 13 13 14 15 17 22 32 45 50 51 52 57 61 62 67 74 79 84 82 73 76 78 79 73 54 33 16 11 12 18 33 50 53 40 33 32 30 27 25
15 15 14 14 15 16 17 19 22 30 44 51 55 58 62 62 62 63 66 71 75 70 67 70 69 71 70 55 30 15 10 11 24 41 34 29 28 30 33 32 33 28 23
15 14 15 17 18 20 22 25 30 42 50 58 62 63 56 58 54 58 66 60 58 58 58 61 66 67 56 37 13 10 10 13 19 25 31 29 29 31 29 29 38 26 26
16 18 20 22 24 25 31 37 43 47 57 64 62 55 53 52 51 53 56 56 52 51 55 59 63 57 36 17 9 8 10 14 15 16 22 31 33 31 26 33 29 27 71
22 24 25 25 28 36 43 48 56 66 65 57 52 52 52 55 53 52 55 58 62 63 66 65 57 40 20 9 9 11 13 12 8 8 14 34 36 29 25 24 20 38 66
26 27 28 34 42 50 57 64 66 62 56 52 54 53 54 55 55 57 60 67 72 74 68 56 38 18 9 9 11 12 14 8 8 14 26 36 38 26 25 22 22 57 78
27 33 41 50 58 64 69 68 61 58 56 55 56 59 58 58 55 58 62 71 74 70 57 38 17 10 9 11 13 14 12 8 14 24 30 32 29 24 20 26 36 53 90
46 51 60 67 73 72 64 61 58 59 59 56 56 59 61 62 66 70 76 79 72 58 40 16 10 9 11 14 13 12 9 19 23 26 27 27 24 20 24 42 48 74 100
64 73 77 80 71 62 61 67 66 69 72 69 68 66 67 70 77 81 82 74 56 30 13 11 10 14 17 14 9 9 18 32 31 28 23 20 20 22 45 45 67 94 100
75 79 82 74 75 78 74 73 72 81 84 78 76 75 86 90 88 87 76 53 25 13 11 12 17 20 19 11 8 13 29 34 32 25 19 17 21 26 62 41 86 100 100
76 87 91 90 91 96 92 91 94 91 85 79 76 84 90 91 86 76 47 21 14 13 14 18 24 24 20 10 9 16 31 27 26 26 20 17 20 46 69 38 83 100 100
100 100 99 94 99 95 95 100 100 98 95 93 97 98 93 86 73 43 19 15 14 14 19 22 28 28 22 11 10 17 27 23 24 26 22 19 26 62 61 36 93 100 100
100 100 100 100 100 100 100 100 100 98 98 99 100 98 89 67 37 18 17 16 15 19 20 27 30 31 23 13 11 19 23 22 24 27 27 24 29 55 43 48 99 100 100
100 100 100 100 100 100 100 100 100 100 100 100 96 85 56 28 20 19 19 17 20 22 24 32 35 30 19 14 14 21 22 22 25 29 31 35 41 55 41 69 100 100 100
100 100 100 100 100 100 100 100 100 100 98 94 82 52 30 22 21 22 21 21 23 26 34 39 35 23 18 17 19 23 23 21 26 31 39 41 48 64 52 99 100 100 100
100 100 100 100 100 100 100 100 100 98 94 83 57 35 28 25 26 26 24 24 26 39 47 40 27 20 20 21 24 26 23 23 24 30 40 40 64 81 82 100 100 100 100
100 100 100 100 100 100 100 99 97 89 76 62 44 34 34 35 33 29 27 29 34 53 49 33 23 21 22 26 29 27 23 23 24 26 37 63 76 85 100 100 100 100 100
100 100 100 100 100 98 98 92 76 59 58 55 42 41 42 37 32 31 32 41 61 60 40 27 24 23 27 32 30 26 24 26 29 30 33 82 94 92 100 100 100 100 100
100 100 100 100 98 91 70 49 40 38 33 30 33 38 35 34 36 42 57 75 73 49 34 28 25 27 31 31 28 27 27 27 28 30 34 96 100 100 100 100 100 100 100

GFSGL_500_rhum_048.txt.gz
RH
28 29 19 22 48 20 31 42 20 53 49 38 43 30 23 14 13 10 11 15 16 22 46 31 42 100 84 75 81 93 100 89 74 65 63 64 64 64 52 41 28 18 18
89 78 73 55 37 52 78 54 63 55 49 44 35 35 11 10 12 15 16 21 26 31 34 41 50 78 75 80 90 100 88 79 71 66 64 66 68 56 43 28 19 18 22
65 73 85 80 74 63 59 70 47 54 48 34 15 12 10 12 17 24 27 32 37 40 44 51 63 73 78 94 99 86 85 79 75 70 57 55 54 48 30 17 15 20 25
32 46 48 47 57 56 41 55 62 59 39 20 14 13 14 18 27 33 40 42 45 50 54 60 64 68 74 78 85 90 87 79 70 56 53 55 49 31 14 12 14 26 36
53 62 42 49 66 69 84 72 48 22 13 14 14 14 16 17 27 36 43 47 53 56 59 60 62 65 70 78 79 80 75 64 60 66 60 47 26 12 14 30 39 44 52
30 31 41 53 72 65 48 20 12 14 13 14 15 16 19 29 41 45 48 50 56 56 52 48 48 61 70 69 67 59 58 62 66 63 41 18 12 14 24 42 46 46 35
51 68 78 61 39 24 12 13 13 14 15 17 19 22 26 34 42 46 52 58 53 50 44 49 51 56 62 57 54 56 60 67 60 42 22 13 10 12 18 25 31 34 33
58 46 43 35 20 14 15 16 16 18 19 20 24 29 35 43 50 57 61 55 51 50 52 52 56 55 56 57 56 61 64 59 40 21 11 10 14 15 19 24 26 34 35
43 42 35 19 16 17 17 18 20 22 22 26 36 44 50 52 56 63 55 52 48 49 54 57 57 57 58 62 62 64 59 46 22 10 10 14 17 18 15 14 28 42 39
37 30 16 18 18 17 20 23 23 24 28 36 46 53 57 55 62 57 56 52 51 52 54 56 59 60 61 65 67 60 47 26 10 8 10 14 16 14 11 26 46 44 42
17 16 17 17 18 21 23 21 21 27 37 49 57 64 66 57 56 55 59 54 50 54 58 58 60 61 63 65 62 46 23 10 8 10 14 14 13 10 13 25 55 55 46
18 18 18 19 20 21 22 24 30 44 56 66 71 71 64 60 56 63 63 60 60 56 54 58 59 63 66 61 46 23 11 9 10 13 13 10 11 15 20 37 65 80 64
18 19 20 22 24 25 31 40 49 58 67 76 74 69 66 68 66 72 73 70 63 61 62 63 68 74 64 44 21 12 9 10 14 15 10 9 19 24 29 31 66 54 32
20 23 24 26 42 55 57 62 71 77 82 76 73 80 80 78 79 80 78 73 69 69 71 75 80 65 44 22 12 10 12 16 18 15 8 14 31 27 27 33 44 26 22
25 27 42 60 78 84 85 81 81 83 89 82 88 93 98 94 92 88 84 82 73 75 76 80 67 44 23 14 11 13 17 22 22 15 9 18 34 29 24 23 22 25 40
70 85 85 91 95 83 82 89 97 100 100 100 97 97 96 100 97 92 93 89 81 82 86 69 40 20 16 12 13 16 22 28 27 16 12 23 30 27 21 19 21 42 51
100 92 99 100 100 90 100 100 100 100 100 100 100 100 100 100 92 95 98 94 90 90 72 35 19 18 15 14 16 20 27 32 29 15 16 25 28 27 22 18 23 59 44
92 91 100 100 98 99 97 100 100 100 100 100 100 100 100 100 100 100 98 98 94 70 30 20 20 19 16 17 18 26 33 34 22 15 24 26 27 28 23 20 24 70 48
95 99 98 85 90 99 100 100 100 100 100 100 96 95 99 100 99 97 96 92 73 35 23 24 23 20 19 19 23 37 38 27 18 18 25 30 31 30 28 28 38 74 46
100 100 100 100 100 100 100 100 100 100 100 100 100 100 100 100 100 99 94 71 34 25 26 26 22 22 21 23 34 46 34 20 18 20 27 33 30 32 33 35 67 68 55
100 100 100 100 100 100 100 100 100 100 100 100 100 100 100 100 98 90 61 28 29 28 28 26 25 25 27 32 51 44 25 20 20 24 28 36 43 41 45 60 77 60 75
100 100 100 100 100 100 100 100 100 100 100 100 100 100 98 97 84 45 28 30 29 27 28 28 30 34 40 58 56 35 23 22 23 28 26 27 41 42 67 82 85 63 97
100 100 100 100 100 100 100 100 100 100 100 100 100 98 92 64 30 27 26 26 26 29 34 39 49 58 72 68 46 29 24 25 30 30 26 25 32 46 77 94 96 90 100
100 100 100 100 100 100 100 100 100 100 100 100 95 66 30 24 24 24 24 26 32 39 48 59 73 80 80 59 39 28 26 30 33 30 26 25 27 43 72 83 100 100 100
100 100 100 100 100 100 100 100 100 100 93 65 27 20 21 20 21 23 26 29 30 35 56 79 88 84 66 50 33 28 32 32 30 28 27 27 31 34 69 85 100 100 100
100 100 100 100 100 100 100 98 84 51 21 17 17 17 18 19 18 17 15 15 18 30 59 75 82 68 59 40 31 34 34 32 30 29 28 30 32 35 54 99 100 100 100